Weather History for Annette Island, AK

Change the Weather History Date:

Saturday, October 29, 2011

  Actual Average Record
Temperature  
Mean Temperature 47 °F 43 °F  
Max Temperature 49 °F 48 °F 65 °F (1962)
Min Temperature 45 °F 39 °F 22 °F (1984)
Degree Days  
Heating Degree Days 18 22  
Month to date heating degree days 520 521  
Since 1 July heating degree days 1379 1256  
Cooling Degree Days 0    
Month to date cooling degree days 0  
Year to date cooling degree days 3  
Moisture  
Dew Point 44 °F    
Average Humidity 0    
Maximum Humidity 0    
Minimum Humidity 0    
Precipitation  
Precipitation 1.81 in 0.47 in 3.50 in (1958)
Month to date precipitation 15.32 12.96  
Year to date precipitation 91.08 77.66  
Snow  
Snow 0.00 in 0.00 in T in (2005)
Month to date snowfall 0.1  
Since 1 July snowfall 0.1  
Since 1 September snowfall 0.0 0.1  
Snow Depth 0.00 in    
Sea Level Pressure  
Sea Level Pressure 29.68 in    
Wind  
Wind Speed 14 mph (SSE)    
Max Wind Speed 26 mph    
Max Gust Speed 43 mph    
Visibility 6 miles    
Events Rain    
T = Trace of Precipitation, MM = Missing Value Source: NWS Daily Summary

Daily Weather History Graph

Daily Weather History Graph

Search for Another Location

Airport:

Trip Planner

Search our weather history database for the weather conditions in past years. The results will help you decide how hot, cold, wet, or windy it might be!

Date:

Astronomy

Oct. 29, 2011 Rise Set
Actual Time 7:43 AM AKDT 5:15 PM AKDT
Civil Twilight 7:05 AM AKDT 5:53 PM AKDT
Nautical Twilight 6:22 AM AKDT 6:36 PM AKDT
Astronomical Twilight 5:40 AM AKDT 7:17 PM AKDT
Moon 11:48 AM AKDT (10/29) 7:10 PM AKDT (10/29)
Length of Visible Light 10h 47m
Length of Day
9h 31m
Waxing Crescent, 13% of the Moon is Illuminated
Oct 29
Waxing Crescent
Nov 2
First Quarter
Nov 10
Full
Nov 18
Last Quarter
Nov 24
New

Hourly Weather History & Observations

Time (AKDT) Temp. Windchill Dew Point Humidity Pressure Visibility Wind Dir Wind Speed Gust Speed Precip Events Conditions
12:31 AM 46.4 °F 42.4 °F 41.0 °F 81% 29.78 in 10.0 mi South 8.1 mph 17.3 mph 0.01 in   Overcast
12:53 AM 46.9 °F - 39.9 °F 77% 29.78 in 10.0 mi South 6.9 mph 17.3 mph 0.01 in   Overcast
1:09 AM 46.4 °F 41.1 °F 41.0 °F 81% 29.78 in 10.0 mi South 11.5 mph 21.9 mph N/A   Overcast
1:53 AM 46.9 °F - 41.0 °F 80% 29.80 in 10.0 mi South 9.2 mph 18.4 mph N/A   Overcast
2:53 AM 48.0 °F - 39.9 °F 74% 29.79 in 10.0 mi South 9.2 mph 17.3 mph N/A   Overcast
3:53 AM 48.0 °F - 39.9 °F 74% 29.79 in 10.0 mi South 11.5 mph 26.5 mph 0.00 in Rain Light Rain
4:49 AM 44.6 °F 38.4 °F 39.2 °F 81% 29.78 in 10.0 mi SSE 12.7 mph 20.7 mph 0.05 in Rain Light Rain
4:53 AM 45.0 °F 38.5 °F 41.0 °F 86% 29.78 in 10.0 mi South 13.8 mph 23.0 mph 0.05 in Rain Light Rain
5:53 AM 45.0 °F 38.2 °F 41.0 °F 86% 29.76 in 10.0 mi SSE 15.0 mph 33.4 mph 0.05 in Rain Light Rain
6:03 AM 46.4 °F 39.2 °F 42.8 °F 87% 29.75 in 8.0 mi SSE 18.4 mph 25.3 mph 0.02 in Rain Light Rain
6:36 AM 46.4 °F 39.0 °F 42.8 °F 87% 29.73 in 7.0 mi SSE 19.6 mph 36.8 mph 0.06 in Rain Light Rain
6:49 AM 46.4 °F 39.2 °F 42.8 °F 87% 29.74 in 6.0 mi SSE 18.4 mph 34.5 mph 0.09 in Rain Rain
6:53 AM 46.0 °F 39.3 °F 43.0 °F 89% 29.74 in 6.0 mi SSE 16.1 mph 31.1 mph 0.10 in Rain Light Rain
7:43 AM 46.4 °F 39.5 °F 44.6 °F 93% 29.73 in 7.0 mi SSE 17.3 mph 32.2 mph 0.08 in Rain Light Rain
7:53 AM 46.0 °F 38.5 °F 43.0 °F 89% 29.73 in 7.0 mi SSE 19.6 mph 35.7 mph 0.09 in Rain Light Rain
8:06 AM 46.4 °F 39.0 °F 44.6 °F 93% 29.72 in 5.0 mi SSE 19.6 mph 35.7 mph 0.02 in Rain Rain
8:31 AM 46.4 °F 39.2 °F 44.6 °F 93% 29.71 in 7.0 mi SSE 18.4 mph 32.2 mph 0.05 in Rain Light Rain
8:42 AM 46.4 °F 39.2 °F 44.6 °F 93% 29.71 in 5.0 mi SSE 18.4 mph 33.4 mph 0.07 in Rain Rain
8:53 AM 46.9 °F - 45.0 °F 93% 29.72 in 4.0 mi SSE 19.6 mph 31.1 mph 0.09 in Rain Rain
9:48 AM 46.4 °F 38.7 °F 44.6 °F 93% 29.70 in 4.0 mi SSE 20.7 mph 35.7 mph 0.13 in Rain Rain
9:53 AM 46.9 °F - 45.0 °F 93% 29.71 in 3.0 mi SSE 17.3 mph 34.5 mph 0.15 in Rain Rain
10:05 AM 48.2 °F - 46.4 °F 93% 29.70 in 3.0 mi SSE 16.1 mph 31.1 mph 0.04 in Rain Rain
10:16 AM 48.2 °F - 46.4 °F 93% 29.69 in 3.0 mi SSE 24.2 mph 41.4 mph 0.08 in Rain Rain
10:25 AM 48.2 °F - 46.4 °F 93% 29.70 in 2.5 mi SSE 18.4 mph 35.7 mph 0.10 in Rain Rain
10:53 AM 48.0 °F - 46.0 °F 93% 29.70 in 2.5 mi SSE 18.4 mph 29.9 mph 0.20 in Rain Rain
11:01 AM 48.2 °F - 46.4 °F 93% 29.70 in 3.0 mi SSE 20.7 mph 36.8 mph 0.01 in Rain Rain
11:13 AM 48.2 °F - 46.4 °F 93% 29.69 in 3.0 mi SSE 18.4 mph 35.7 mph 0.04 in Rain Rain
11:22 AM 48.2 °F - 46.4 °F 93% 29.69 in 3.0 mi SSE 20.7 mph 33.4 mph 0.06 in Rain Rain
11:53 AM 48.9 °F - 46.0 °F 90% 29.69 in 4.0 mi SSE 18.4 mph 32.2 mph 0.12 in Rain Rain
12:15 PM 48.2 °F - 46.4 °F 93% 29.68 in 3.0 mi SSE 17.3 mph 34.5 mph 0.06 in Rain Rain
12:53 PM 48.9 °F - 46.0 °F 90% 29.68 in 4.0 mi SSE 15.0 mph 33.4 mph 0.14 in Rain Rain
1:12 PM 48.2 °F - 46.4 °F 93% 29.67 in 4.0 mi SSE 20.7 mph 33.4 mph 0.04 in Rain Rain
1:53 PM 48.9 °F - 46.9 °F 93% 29.65 in 3.0 mi SSE 19.6 mph 39.1 mph 0.13 in Rain Rain
2:53 PM 48.9 °F - 46.9 °F 93% 29.63 in 3.0 mi SSE 19.6 mph 35.7 mph 0.12 in Rain Rain
4:53 PM 48.9 °F - 46.9 °F 93% 29.57 in 4.0 mi SSE 19.6 mph 34.5 mph 0.05 in Rain Light Rain
5:31 PM 48.2 °F - 46.4 °F 93% 29.56 in 4.0 mi South 19.6 mph 40.3 mph 0.07 in Rain Light Rain
5:53 PM 48.9 °F - 46.9 °F 93% 29.56 in 5.0 mi SSE 25.3 mph 39.1 mph 0.09 in Rain Light Rain
6:53 PM 48.9 °F - 46.9 °F 93% 29.56 in 5.0 mi South 15.0 mph 36.8 mph 0.10 in Rain Light Rain
7:24 PM 48.2 °F - 46.4 °F 93% 29.57 in 2.0 mi South 16.1 mph 33.4 mph 0.12 in Rain Rain
7:30 PM 46.4 °F 41.5 °F 44.6 °F 93% 29.57 in 3.0 mi SSW 10.4 mph 27.6 mph 0.18 in Rain Heavy Rain
7:49 PM 46.4 °F 40.4 °F 44.6 °F 93% 29.58 in 6.0 mi SSW 13.8 mph 23.0 mph 0.22 in Rain Rain
7:53 PM 48.0 °F - 46.0 °F 93% 29.58 in 7.0 mi SSW 9.2 mph 23.0 mph 0.22 in Rain Light Rain
8:53 PM 48.0 °F - 46.0 °F 93% 29.59 in 10.0 mi SSW 4.6 mph - 0.02 in   Overcast
9:13 PM 46.4 °F 43.5 °F 44.6 °F 93% 29.59 in 10.0 mi SSW 5.8 mph - N/A   Overcast
9:28 PM 46.4 °F - 44.6 °F 93% 29.59 in 10.0 mi Calm Calm - N/A   Scattered Clouds
9:53 PM 45.0 °F - 42.1 °F 90% 29.60 in 10.0 mi Calm Calm - N/A   Clear
10:53 PM 46.9 °F - 43.0 °F 86% 29.60 in 10.0 mi South 5.8 mph - 0.00 in Rain Light Rain
11:53 PM 46.0 °F - 43.0 °F 89% 29.60 in 10.0 mi Calm Calm - 0.00 in   Overcast